Regional Weather Roundup
Issued by NWS

Home | Current Version | Previous Version | Graphics & Text | Print | Product List | Glossary On
Versions: 1 2 3 4 5 6 7 8 9 10 11 12 13 14 15 16 17 18 19 20 21 22 23 24 25 26 27 28
000
ASUS45 KBOI 160710
RWRID

IDAHO REGIONAL WEATHER ROUNDUP
NATIONAL WEATHER SERVICE BOISE ID
1200 AM MST SAT DEC 16 2017

NOTE: "FAIR" INDICATES FEW OR NO CLOUDS BELOW 12000 FEET
WITH NO SIGNIFICANT WEATHER AND/OR OBSTRUCTIONS TO VISIBILITY

IDZ012-014-160800-
SOUTHWEST IDAHO


CITY           SKY/WX    TMP DP  RH WIND       PRES   REMARKS
BOISE          CLOUDY    27  25  92 NW12      30.11S FOG     WCI  17
CALDWELL       FLURRIES  27  25  92 W6        30.15F WCI  20
MOUNTAIN HOME  LGT SNOW  27  27 100 W9        30.09F FOG     WCI  17
$$

IDZ016-017-160800-
SOUTHCENTRAL IDAHO


CITY           SKY/WX    TMP DP  RH WIND       PRES   REMARKS
BURLEY         CLOUDY    26  23  88 W12       30.01R FOG     WCI  16
JEROME         CLOUDY    24  23  96 SW15      30.03F FOG     WCI  11
TWIN FALLS     CLOUDY    24  24 100 W13       30.04R FOG     WCI  12
$$

IDZ019>023-160800-
SOUTHEAST IDAHO


CITY           SKY/WX    TMP DP  RH WIND       PRES   REMARKS
IDAHO FALLS    CLOUDY    23  22  96 N5        29.95F WCI  17
POCATELLO      CLOUDY    26  23  88 CALM      29.98
REXBURG        CLOUDY    24  21  88 CALM      29.94F
$$

IDZ006-010-011-018-031-032-160800-
CENTRAL IDAHO MOUNTAINS


CITY           SKY/WX    TMP DP  RH WIND       PRES   REMARKS
MCCALL         CLOUDY    23  20  88 CALM      29.99R
HAILEY         CLOUDY    28  27  93 SE6       29.95F WCI  22
STANLEY          N/A     22  20  92 CALM      29.93F
SALMON         CLOUDY    23  21  92 CALM      30.01S
CHALLIS        CLOUDY    22  18  85 CALM      29.95S
$$

IDZ002-004-006-007-026-160800-
NORTHERN IDAHO


CITY           SKY/WX    TMP DP  RH WIND       PRES   REMARKS
LEWISTON       LGT SNOW  30  29  96 CALM      30.15R FOG
LOWELL           N/A     32  32 100 CALM      30.12S
COEUR D`ALENE  FLURRIES  25  23  92 S6        30.10S WCI  18
MULLAN PASS    LGT SNOW  20  18  92 NW3       29.89R VSB 1
$$




USA.gov is the U.S. government's official web portal to all federal, state and local government web resources and services.